2019-093D

Last updated on Mon Jan 20 2020 00:02:04 GMT+0000 (Coordinated Universal Time)

1 44882U 19093D 20019.51297845 .00000172 00000-0 28808-4 0 9991 2 44882 97.9776 96.4830 0016907 161.8977 198.2843 14.81428736 4491

Satellite not in orbit

2019-093D